Regional Weather Roundup
Issued by NWS

Home | Current Version | Previous Version | Graphics & Text | Print | Product List | Glossary On
Versions: 1 2 3 4 5 6 7 8 9 10 11 12 13 14 15 16 17 18 19 20 21 22 23 24 25 26 27 28 29 30 31 32 33 34 35 36 37 38 39 40 41 42 43 44 45 46 47 48 49 50
757
ASUS43 KLOT 050208
RWRIL

ILLINOIS REGIONAL WEATHER ROUNDUP
NATIONAL WEATHER SERVICE CHICAGO/ROMEOVILLE IL
900 PM CDT WED MAY 04 2016

NOTE: "FAIR" INDICATES FEW OR NO CLOUDS BELOW 12,000 FEET WITH NO
SIGNIFICANT WEATHER AND/OR OBSTRUCTIONS TO VISIBILITY.

* THESE STATIONS ARE NOT UNDER NWS QUALITY CONTROL. THEY ALSO MAY NOT
  REPORT WEATHER SUCH AS PRECIPITATION OR FOG.

ILZ001-002-007-009-015-016-024-050300-
NORTHWEST ILLINOIS

CITY           SKY/WX    TMP DP  RH WIND       PRES   REMARKS
MOLINE         CLEAR     57  32  38 N6        29.87R
STERLING*      CLEAR     54  37  54 NW6       29.86R
SAVANNA*       CLEAR     55  32  40 N5        29.87R
$$

ILZ003-004-008-010-011-017-018-050300-
NORTH CENTRAL ILLINOIS

CITY           SKY/WX    TMP DP  RH WIND       PRES   REMARKS
ROCKFORD       PTCLDY    51  37  58 NE9       29.89R
FREEPORT*      CLEAR     48  33  57 NE7       29.89R
ROCHELLE*      PTCLDY    48  40  73 N3        29.86R
DE KALB*       CLEAR     47  40  76 E9        29.87R
$$

ILZ005-006-012>014-019>023-050300-
NORTHEAST ILLINOIS

CITY           SKY/WX    TMP DP  RH WIND       PRES   REMARKS
CHICAGO-OHARE  MOCLDY    44  35  70 N15       29.87R
CHICAGO-MIDWAY CLOUDY    45  33  63 N18G25    29.86R
AURORA         CLEAR     46  38  73 NE9       29.87R
LANSING*       CLOUDY    44  35  70 N9G18     29.86S
JOLIET*        MOCLDY    47  38  72 NE8       29.87R
WAUKEGAN       CLOUDY    42  35  76 N9G22     29.87R
DUPAGE AIRPORT PTCLDY    44  35  70 NE9       29.86R
KANKAKEE*      CLOUDY    46  38  74 NE9       29.86R
WHEELING       MOCLDY    43  34  70 N14G22    29.88R
MORRIS*        CLEAR     49  39  70 NE5       29.84R
ROMEOVILLE*    CLOUDY    45  35  67 NE18      29.87R
NORTHERLY ISL    N/A     43  35  73 N14         N/A
NORTHERLY ISL    N/A     43  35  73 N14         N/A
$$

LMZ740>746-050300-
SOUTHERN LAKE MICHIGAN

STATION/POSITION SKY/WX   TEMP    WIND        PRES    VSBY  WAVE
                          AIR SEA DIR/SP/G                  HT/PER
                          (F)     (DEG/KT/KT) (MB)    (MI)  (FT/S)
SOUTHERN BUOY              41 40   10/ 27/ 33 1009.6R         9/ 8
WILMETTE HARBOR            42 43   30/ 16/ 19   N/A           7/ 8
HARRISON CRIB              44     350/ 19/ 21   N/A
BURNHAM HARBOR             43     340/ 15/ 18   N/A
CALUMET HARBOR                                1010.4R
BURNS HARBOR               44     360/ 19     1010.8R
MICHIGAN CITY              42     340/ 28/ 30   N/A
ST. JOSEPH                 42 47                N/A          10/ 7
$$

ILZ025>027-034>036-040-047-049-050-058-095>099-050300-
WEST-CENTRAL ILLINOIS

CITY           SKY/WX    TMP DP  RH WIND       PRES   REMARKS
QUINCY         CLEAR     54  39  57 W3        29.89R
GALESBURG*     CLEAR     53  35  51 NW8       29.88R
MACOMB*        CLEAR     51  38  60 N7        29.90R
JACKSONVILLE*  MOCLDY    55  36  48 NW3       29.88R
PITTSFIELD*    PTCLDY    57  38  48 W5        29.89S
$$

ILZ028>032-037-038-041>044-048-051>054-059>061-050300-
CENTRAL ILLINOIS

CITY           SKY/WX    TMP DP  RH WIND       PRES   REMARKS
PONTIAC        PTCLDY    52  45  76 CALM      29.85R
BLOOMINGTON    PTCLDY    51  43  74 NW6       29.85S
DECATUR        MOCLDY    54  40  59 CALM      29.85R
PEORIA         MOCLDY    55  34  45 NW5       29.86R
LACON*         PTCLDY    49  41  73 CALM      29.84R
LINCOLN*       CLOUDY    56  42  61 CALM      29.85S
SPRINGFIELD    CLEAR     54  37  52 NW5       29.86S
TAYLORVILLE    CLEAR     52  41  65 NW6       29.86R
$$

ILZ033-039-045-046-055>057-062-063-050300-
EAST-CENTRAL ILLINOIS

CITY           SKY/WX    TMP DP  RH WIND       PRES   REMARKS
CHAMPAIGN      CLOUDY    49  41  74 N7        29.84R
RANTOUL*       CLOUDY    51  43  72 CALM      29.84S
MATTOON        CLOUDY    49  43  80 NW5       29.83F
PARIS*         CLOUDY    50  41  70 N3        29.85R
$$

ILZ079-100>102-050300-
SOUTHWEST ILLINOIS

CITY           SKY/WX    TMP DP  RH WIND       PRES   REMARKS
ALTON          CLEAR     52  39  62 W7        29.89R
BELLEVILLE     PTCLDY    56  38  50 W3        29.87R
CAHOKIA*       CLEAR     58  34  40 NW9       29.89R
SPARTA*        PTCLDY    55  40  57 CALM      29.90R
$$

ILZ064>066-069>071-074>076-080>082-084>086-088>090-092>094-050300-
SOUTH-CENTRAL ILLINOIS

CITY           SKY/WX    TMP DP  RH WIND       PRES   REMARKS
CARBONDALE     CLEAR     55  40  56 MISG      29.88R
CAIRO*         CLEAR     59  43  54 N8        29.87R
EFFINGHAM*       N/A     52  46  78 CALM      29.87S
MARION         PTCLDY    55  43  62 N5        29.89R
MT. VERNON     PTCLDY    54  36  50 CALM      29.88R
CENTRALIA*     PTCLDY    54  42  65 CALM      29.87S
SALEM*         PTCLDY    53  43  69 CALM      29.87S
METROPOLIS*    CLEAR     58  45  62 N7        29.88R
$$

ILZ067-068-072-073-078-083-087-091-050300-
SOUTHEAST ILLINOIS

CITY           SKY/WX    TMP DP  RH WIND       PRES   REMARKS
LAWRENCEVILLE  PTCLDY    52  42  69 N8        29.85R
FLORA*         PTCLDY    53  43  67 CALM      29.87R
FAIRFIELD*     MOCLDY    55  42  62 CALM      29.86R
HARRISBURG*    CLOUDY    56  42  60 N6        29.88R
ROBINSON*      MOCLDY    49  43  80 NW5       29.85S
CARMI*         CLOUDY    55  44  66 N8        29.86S
$$

ABBREVIATIONS USED IN REMARKS
   TC - TEMPERATURE IN CELSIUS
  WCI - WIND CHILL INDEX
   HX - HEAT INDEX
  VSB - VISIBILITY
$$





USA.gov is the U.S. government's official web portal to all federal, state and local government web resources and services.